TimeEST,TemperatureF,Dew PointF,Humidity,Sea Level PressureIn,VisibilityMPH,Wind Direction,Wind SpeedMPH,Gust SpeedMPH,PrecipitationIn,Events,Conditions,WindDirDegrees,DateUTC
12:53 AM,42.1,18.0,38,30.09,10.0,South,15.0,23.0,N/A,,Clear,190,2013-11-15 05:53:00
1:53 AM,42.1,17.1,37,30.09,10.0,SSW,15.0,23.0,N/A,,Clear,200,2013-11-15 06:53:00
2:53 AM,41.0,17.1,38,30.10,10.0,South,11.5,20.7,N/A,,Clear,190,2013-11-15 07:53:00
3:53 AM,42.1,17.1,37,30.09,10.0,SSW,15.0,23.0,N/A,,Clear,200,2013-11-15 08:53:00
4:53 AM,42.1,18.0,38,30.10,10.0,South,16.1,21.9,N/A,,Clear,190,2013-11-15 09:53:00
5:53 AM,41.0,18.0,40,30.09,10.0,SSW,17.3,23.0,N/A,,Clear,200,2013-11-15 10:53:00
6:53 AM,41.0,18.0,40,30.10,10.0,SSW,18.4,24.2,N/A,,Clear,200,2013-11-15 11:53:00
7:53 AM,41.0,18.0,40,30.12,10.0,SSW,17.3,24.2,N/A,,Clear,200,2013-11-15 12:53:00
8:53 AM,43.0,19.0,38,30.12,10.0,SSW,16.1,24.2,N/A,,Clear,200,2013-11-15 13:53:00
9:53 AM,46.9,21.0,36,30.12,10.0,SSW,15.0,24.2,N/A,,Clear,200,2013-11-15 14:53:00
10:53 AM,48.9,21.0,33,30.12,10.0,SSW,13.8,23.0,N/A,,Clear,210,2013-11-15 15:53:00
11:53 AM,50.0,19.9,31,30.11,10.0,SW,12.7,-,N/A,,Clear,230,2013-11-15 16:53:00
12:53 PM,53.1,21.0,29,30.08,10.0,SSW,18.4,25.3,N/A,,Clear,210,2013-11-15 17:53:00
1:53 PM,54.0,19.9,26,30.07,10.0,SSW,16.1,25.3,N/A,,Clear,210,2013-11-15 18:53:00
2:53 PM,48.9,30.9,50,30.08,10.0,West,8.1,17.3,N/A,,Clear,280,2013-11-15 19:53:00
3:53 PM,48.9,33.1,54,30.09,10.0,WSW,5.8,-,N/A,,Clear,240,2013-11-15 20:53:00
4:53 PM,46.0,33.1,61,30.09,10.0,Calm,Calm,-,N/A,,Clear,0,2013-11-15 21:53:00
5:53 PM,44.1,33.1,65,30.10,10.0,Calm,Calm,-,N/A,,Clear,0,2013-11-15 22:53:00
6:53 PM,45.0,25.0,46,30.10,10.0,South,5.8,-,N/A,,Clear,180,2013-11-15 23:53:00
7:53 PM,48.0,21.0,34,30.10,10.0,SSW,9.2,20.7,N/A,,Clear,210,2013-11-16 00:53:00
8:53 PM,46.9,21.0,36,30.12,10.0,SSW,6.9,-,N/A,,Clear,210,2013-11-16 01:53:00
9:53 PM,48.0,21.9,36,30.12,10.0,SSW,8.1,19.6,N/A,,Clear,200,2013-11-16 02:53:00
10:53 PM,46.9,25.0,42,30.12,10.0,SSW,8.1,-,N/A,,Clear,210,2013-11-16 03:53:00
11:53 PM,45.0,26.1,48,30.14,10.0,SSW,8.1,-,N/A,,Clear,200,2013-11-16 04:53:00